Simultaneous Nadir Overpasses (SNOs) Predictions

Prediction of SNOs between FY3D and AQUA Satellite Orbit:

Table of predicted SNOs for the next 14.0 days since TLE Epoch: 8/14/2021
Index Date (FY3D) Time (FY3D) Lat,Lon (FY3D) SZA (FY3D ) Date (AQUA) Time (AQUA) Lat,Lon (AQUA) SZA (AQUA ) Distance(km) Time Diff (sec)
1 08/16/2021 03:54:21 -61.16, -49.91 132.34 08/16/2021 03:54:46 -61.17, -49.94 132.33 1.63 25
2 08/16/2021 04:42:51 53.46, 122.21 40.73 08/16/2021 04:42:03 53.46, 122.18 40.69 1.52 48
3 08/18/2021 20:11:15 -63.15, 64.42 129.61 08/18/2021 20:11:49 -63.14, 64.45 129.61 1.58 34
4 08/18/2021 20:59:49 55.73,-123.08 43.60 08/18/2021 20:59:10 55.73,-123.08 43.58 0.25 39
5 08/21/2021 12:27:43 -63.74, 179.84 128.16 08/21/2021 12:28:27 -63.74, 179.84 128.15 0.03 44
6 08/21/2021 13:16:41 57.70, -8.32 46.27 08/21/2021 13:16:11 57.70, -8.30 46.25 0.97 30
7 08/24/2021 04:44:10 -64.22, -64.66 126.78 08/24/2021 04:45:04 -64.23, -64.70 126.77 1.85 54
8 08/24/2021 05:33:31 59.49, 106.44 48.83 08/24/2021 05:33:10 59.49, 106.48 48.81 2.10 21
9 08/26/2021 21:00:56 -65.75, 49.77 124.39 08/26/2021 21:01:59 -65.75, 49.79 124.38 0.87 63



Historial Predications of SNOs between FY3D and AQUA
